Weather History for Coffeyville, KS

Change the Weather History Date:

Wednesday, February 19, 2014

  Actual Average Record
Temperature  
Mean Temperature 50 °F -  
Max Temperature 66 °F 49 °F 75 °F (2011)
Min Temperature 34 °F 30 °F 17 °F (2006)
Degree Days  
Heating Degree Days 15    
Moisture  
Dew Point 39 °F    
Average Humidity 64    
Maximum Humidity 93    
Minimum Humidity 21    
Precipitation  
Precipitation 0.01 in - - ()
Sea Level Pressure  
Sea Level Pressure 29.79 in    
Wind  
Wind Speed 9 mph (SE)    
Max Wind Speed 17 mph    
Max Gust Speed 24 mph    
Visibility 10 miles    
Events Rain    
Averages and records for this station are not official NWS values.
T = Trace of Precipitation, MM = Missing Value Source: NWS Daily Summary

Daily Weather History Graph

Daily Weather History Graph

Search for Another Location

Airport:

Trip Planner

Search our weather history database for the weather conditions in past years. The results will help you decide how hot, cold, wet, or windy it might be!

Date:

Astronomy

Feb. 19, 2014 Rise Set
Actual Time 7:06 AM CST 6:06 PM CST
Civil Twilight 6:39 AM CST 6:32 PM CST
Nautical Twilight 6:09 AM CST 7:03 PM CST
Astronomical Twilight 5:39 AM CST 7:33 PM CST
Moon 10:53 PM CST (2/19) 9:19 AM CST (2/19)
Length of Visible Light 11h 53m
Length of Day
11h 00m
Waning Gibbous, 79% of the Moon is Illuminated
Feb 19
Waning Gibbous
Feb 22
Last Quarter
Mar 1
New
Mar 8
First Quarter
Mar 16
Full

Hourly Weather History & Observations

Time (CST) Temp. Windchill Dew Point Humidity Pressure Visibility Wind Dir Wind Speed Gust Speed Precip Events Conditions
12:52 AM 42.1 °F 37.1 °F 27.0 °F 55% 29.99 in 10.0 mi NE 8.1 mph - N/A   Clear
1:52 AM 39.0 °F - 27.0 °F 62% 29.99 in 10.0 mi Calm Calm - N/A   Clear
2:52 AM 37.9 °F 35.5 °F 28.0 °F 68% 29.98 in 10.0 mi NE 3.5 mph - N/A   Clear
3:52 AM 37.0 °F 33.3 °F 28.0 °F 70% 29.99 in 10.0 mi NW 4.6 mph - N/A   Clear
4:52 AM 37.0 °F - 28.9 °F 73% 30.01 in 10.0 mi Calm Calm - N/A   Clear
5:52 AM 34.0 °F - 28.0 °F 79% 30.02 in 10.0 mi Calm Calm - N/A   Clear
6:52 AM 34.0 °F 28.0 °F 28.0 °F 79% 30.01 in 10.0 mi NE 6.9 mph - N/A   Clear
7:52 AM 35.1 °F 27.9 °F 30.0 °F 82% 29.99 in 10.0 mi NE 9.2 mph - N/A   Clear
8:52 AM 43.0 °F 40.3 °F 32.0 °F 65% 30.01 in 10.0 mi NNE 4.6 mph - N/A   Clear
9:52 AM 48.9 °F - 33.1 °F 54% 29.98 in 10.0 mi East 6.9 mph - N/A   Clear
10:52 AM 55.9 °F - 27.0 °F 33% 29.94 in 10.0 mi East 15.0 mph - N/A   Clear
11:52 AM 60.1 °F - 24.1 °F 25% 29.90 in 10.0 mi ESE 13.8 mph 20.7 mph N/A   Scattered Clouds
12:52 PM 62.1 °F - 21.9 °F 21% 29.86 in 10.0 mi ESE 12.7 mph - N/A   Partly Cloudy
1:52 PM 63.0 °F - 24.1 °F 23% 29.80 in 10.0 mi ESE 15.0 mph - 0.00 in   Overcast
2:52 PM 64.0 °F - 24.1 °F 22% 29.74 in 10.0 mi ESE 17.3 mph - N/A   Partly Cloudy
3:52 PM 66.9 °F - 28.9 °F 24% 29.70 in 10.0 mi SE 16.1 mph - N/A   Mostly Cloudy
4:52 PM 66.9 °F - 50.0 °F 54% 29.66 in 10.0 mi SSE 16.1 mph - N/A   Overcast
5:52 PM 64.9 °F - 52.0 °F 63% 29.66 in 10.0 mi South 17.3 mph - N/A   Overcast
6:15 PM 64.0 °F - 52.0 °F 65% 29.66 in 9.0 mi South 15.0 mph 20.7 mph 0.00 in Rain Light Rain
6:52 PM 63.0 °F - 52.0 °F 67% 29.65 in 10.0 mi SSE 16.1 mph - 0.00 in Rain Light Rain
7:52 PM 61.0 °F - 51.1 °F 70% 29.62 in 10.0 mi SSE 16.1 mph - 0.00 in Rain Light Rain
8:52 PM 60.1 °F - 54.0 °F 80% 29.61 in 10.0 mi South 11.5 mph - 0.00 in   Overcast
9:50 PM 59.0 °F - 55.4 °F 88% 29.60 in 10.0 mi South 16.1 mph - 0.01 in   Overcast
9:52 PM 59.0 °F - 55.0 °F 87% 29.60 in 10.0 mi South 15.0 mph - 0.01 in   Overcast
10:28 PM 59.0 °F - 57.0 °F 93% 29.58 in 8.0 mi South 13.8 mph 21.9 mph N/A   Overcast
10:44 PM 59.0 °F - 57.0 °F 93% 29.58 in 8.0 mi South 12.7 mph 24.2 mph N/A   Overcast
10:52 PM 60.1 °F - 55.9 °F 86% 29.58 in 8.0 mi South 13.8 mph 21.9 mph N/A   Overcast
11:31 PM 60.1 °F - 57.0 °F 90% 29.56 in 9.0 mi South 10.4 mph - N/A   Overcast
11:52 PM 60.1 °F - 55.9 °F 86% 29.54 in 9.0 mi South 8.1 mph - N/A   Overcast